Home > Weather > Tallinn > Past weeks

Flag for Estonia Weather for the Past 2 Weeks in Tallinn, Estonia

Now
32 °F

Mostly cloudy.


Feels Like: 26 °F
Forecast: 32 / 35 °F
Wind: 6 mph from East

Location: Tallinn

Current Time: Feb 13, 2016 at 5:58:52 PM

Latest Report: Feb 13, 2016 at 5:20 PM


Visibility: N/A

Pressure: 29.71 "Hg

Humidity: 100%

Dew point: 32 °F

Location of TallinnLocation

Historic Weather in Tallinn — Graph

°F

Tallinn Temperature Yesterday

Maximum temperature yesterday: 34 °F (at 1:20 AM)
Minimum temperature yesterday: 30 °F (at 6:20 AM)
Average temperature yesterday: 32 °F

High & Low Weather Summary for the Past Weeks

 TemperatureHumidityPressure
High43 °F (Feb 10, 6:50 PM)100% (Jan 29, 7:50 PM)29.98 "Hg (Jan 29, 7:50 PM)
Low19 °F (Feb 6, 5:20 AM)75% (Jan 30, 8:20 AM)28.80 "Hg (Feb 2, 8:20 AM)
Average35 °F93%29.37 "Hg
* Reported Jan 29 4:20 PM — Feb 13 4:50 PM, Tallinn, Weather by CustomWeather, © 2016

Note: Actual official high and low records may vary slightly from our data, if they occured in-between our weather recording intervals... More about our weather records

Advertising

Tallinn Weather History for the Previous 24 Hours

 ConditionsComfort  
Time TempWeatherWind HumidityBarometerVisibility
4:50 PM
Sat, Feb 13
32 °FMostly cloudy.6 mph100%29.71 "HgN/A
4:20 PM32 °FMore clouds than sun.5 mph100%29.71 "HgN/A
3:50 PM32 °FMostly cloudy.6 mph100%29.71 "HgN/A
3:20 PM32 °FMore clouds than sun.7 mph93%29.71 "HgN/A
2:50 PM32 °FOvercast.6 mph87%29.71 "HgN/A
2:20 PM32 °FPartly sunny.5 mph87%29.71 "HgN/A
1:50 PM32 °FPartly sunny.6 mph87%29.71 "HgN/A
1:20 PM32 °FPartly sunny.8 mph93%29.71 "HgN/A
12:50 PM32 °FPartly sunny.7 mph93%29.68 "HgN/A
12:20 PM32 °FScattered clouds.8 mph93%29.68 "HgN/A
11:50 AM32 °FScattered clouds.10 mph93%29.68 "HgN/A
11:20 AM32 °FScattered clouds.8 mph93%29.68 "HgN/A
10:50 AM32 °FPartly sunny.9 mph93%29.65 "HgN/A
10:20 AM32 °FPartly sunny.12 mph93%29.65 "HgN/A
9:50 AM32 °FPassing clouds.10 mph93%29.62 "HgN/A
9:20 AM32 °FScattered clouds.14 mph93%29.62 "HgN/A
8:50 AM34 °FChilly.12 mph93%29.59 "Hg2 mi
8:20 AM34 °FSleet. Broken clouds.10 mph93%29.59 "Hg4 mi
7:50 AM32 °FPassing clouds.10 mph100%29.59 "HgN/A
7:20 AM34 °FSnow flurries. Partly cloudy.12 mph93%29.56 "HgN/A
6:50 AM32 °FSnow flurries. Mostly cloudy.10 mph100%29.56 "HgN/A
6:20 AM34 °FSnow flurries. Partly cloudy.12 mph93%29.56 "Hg5 mi
5:50 AM34 °FMostly cloudy.10 mph93%29.56 "HgN/A
5:20 AM34 °FPartly cloudy.12 mph93%29.56 "HgN/A
4:20 AM32 °FSnow showers. Passing clouds.7 mph100%29.53 "Hg2 mi
3:20 AM32 °FPassing clouds.5 mph100%29.53 "HgN/A
2:50 AM32 °FPassing clouds.3 mph93%29.53 "HgN/A
2:20 AM32 °FPassing clouds.7 mph93%29.53 "HgN/A
1:50 AM32 °FPartly cloudy.8 mph93%29.53 "HgN/A
1:20 AM32 °FPartly cloudy.6 mph93%29.53 "HgN/A
12:50 AM32 °FPassing clouds.6 mph100%29.53 "HgN/A
12:20 AM32 °FSnow flurries. Passing clouds.6 mph100%29.50 "HgN/A
11:20 PM
Fri, Feb 12
32 °FLight snow. Passing clouds.6 mph93%29.50 "HgN/A
10:50 PM30 °FPassing clouds.6 mph100%29.50 "HgN/A
10:20 PM32 °FPassing clouds.7 mph93%29.50 "HgN/A
9:50 PM32 °FPassing clouds.7 mph93%29.47 "HgN/A
9:20 PM32 °FPassing clouds.7 mph93%29.47 "HgN/A
8:50 PM32 °FPassing clouds.8 mph93%29.47 "HgN/A
8:20 PM32 °FPassing clouds.8 mph100%29.47 "HgN/A
7:50 PM32 °FPartly cloudy.9 mph100%29.45 "HgN/A
7:20 PM32 °FPartly cloudy.9 mph100%29.45 "HgN/A
6:50 PM32 °FPassing clouds.10 mph93%29.45 "HgN/A
6:20 PM32 °FPassing clouds.13 mph93%29.42 "HgN/A
5:50 PM32 °FPassing clouds.13 mph93%29.42 "HgN/A
5:20 PM32 °FSnow flurries. Passing clouds.12 mph100%29.39 "Hg6 mi
Weather by CustomWeather, © 2016

See weather overviewHow to use our weather pages